This demonstration page uses our WeatherBlox Daily Observations layout. Learn more.

Left ArrowRight Arrow

47.50024, -111.30081

Hourly Observations for January 1, 2020

Temp ( °F °C ) Dew Point ( °F °C ) Humidity (%) Winds ( mph kmh ) Pressure ( in mb ) Visibility ( mi km ) Precip ( " mm )
12:53 am 00:53 Clear 41 5 28 -2.2 60 60 SW 16 26 29.39 995 10 16 0.00 0.00
1:53 am 01:53 Clear 41 5 28 -2.2 60 60 SW 23 37 29.34 994 10 16 0.00 0.00
2:53 am 02:53 Partly Cloudy 44 6.7 28 -2.2 53 53 WSW 17 28 29.35 994 10 16 0.00 0.00
3:53 am 03:53 Mostly Clear 43 6.1 28 -2.2 56 56 SW 21 33 29.32 993 10 16 0.00 0.00
4:53 am 04:53 Mostly Cloudy 44 6.7 27 -2.8 51 51 SW 26 43 29.27 991 10 16 0.00 0.00
5:53 am 05:53 Mostly Clear 43 6.1 29 -1.7 58 58 SW 29 46 29.29 992 10 16 0.00 0.00
6:53 am 06:53 Clear 42 5.6 28 -2.2 58 58 SW 24 39 29.30 992 10 16 0.00 0.00
7:53 am 07:53 Clear 41 5 27 -2.8 57 57 SW 25 41 29.32 993 10 16 0.00 0.00
8:53 am 08:53 Sunny 42 5.6 27 -2.8 55 55 SW 25 41 29.31 992 10 16 0.00 0.00
9:53 am 09:53 Partly Cloudy 43 6.1 27 -2.8 53 53 SW 24 39 29.33 993 10 16 0.00 0.00
10:53 am 10:53 Mostly Sunny 45 7.2 27 -2.8 49 49 SW 21 33 29.32 993 10 16 0.00 0.00
11:53 am 11:53 Cloudy 45 7.2 26 -3.3 48 48 WSW 24 39 29.32 993 10 16 0.00 0.00
12:53 pm 12:53 Cloudy 46 7.8 26 -3.3 46 46 W 16 26 29.34 994 10 16 0.00 0.00
1:26 pm 13:26 Cloudy with Light Rain 41 5 29 -1.7 62 62 NW 21 33 29.38 995 10 16 0.00 0.00
1:39 pm 13:39 Cloudy with Light Rain 40 4.4 31 -0.6 70 70 NW 12 19 29.40 995 10 16 0.00 0.00
1:53 pm 13:53 Cloudy with Light Rain 40 4.4 31 -0.6 70 70 W 14 22 29.39 995 10 16 0.00 0.00
2:10 pm 14:10 Cloudy with Light Rain 40 4.4 31 -0.6 70 70 W 13 20 29.40 995 10 16 0.00 0.00
2:53 pm 14:53 Cloudy with Light Rain 41 5 30 -1.1 65 65 WNW 13 20 29.41 996 10 16 0.00 0.00
3:53 pm 15:53 Cloudy 40 4.4 31 -0.6 70 70 Calm 29.42 996 10 16 0.00 0.00
4:53 pm 16:53 Cloudy 42 5.6 26 -3.3 53 53 W 13 20 29.44 997 10 16 0.00 0.00
5:53 pm 17:53 Cloudy 41 5 26 -3.3 55 55 W 12 19 29.47 998 10 16 0.00 0.00
6:53 pm 18:53 Cloudy 41 5 26 -3.3 55 55 W 10 17 29.49 999 10 16 0.00 0.00
7:53 pm 19:53 Mostly Cloudy 38 3.3 25 -3.9 60 60 WSW 10 17 29.52 1000 10 16 0.00 0.00
8:53 pm 20:53 Cloudy 37 2.8 26 -3.3 65 65 SW 12 19 29.53 1000 10 16 0.00 0.00
9:53 pm 21:53 Mostly Cloudy 36 2.2 24 -4.4 62 62 WSW 12 19 29.54 1000 10 16 0.00 0.00
10:53 pm 22:53 Clear 34 1.1 24 -4.4 67 67 WSW 14 22 29.55 1001 10 16 0.00 0.00
11:53 pm 23:53 Clear 31 -0.6 22 -5.6 69 69 SW 14 22 29.57 1001 10 16 0.00 0.00

Powered by AerisWeather